Year,Month,Day,Hour,Minute,Value (Times are PST for windgust in km/hr)
2016,10,08,00,00,8.10
2016,10,08,00,01,8.10
2016,10,08,00,02,9.60
2016,10,08,00,03,9.60
2016,10,08,00,04,8.10
2016,10,08,00,05,8.10
2016,10,08,00,06,8.10
2016,10,08,00,07,8.10
2016,10,08,00,08,8.10
2016,10,08,00,09,8.10
2016,10,08,00,10,8.10
2016,10,08,00,11,9.60
2016,10,08,00,12,8.10
2016,10,08,00,13,8.10
2016,10,08,00,14,8.10
2016,10,08,00,15,8.10
2016,10,08,00,16,8.10
2016,10,08,00,17,8.10
2016,10,08,00,18,8.10
2016,10,08,00,19,8.10
2016,10,08,00,20,8.10
2016,10,08,00,21,8.10
2016,10,08,00,22,8.10
2016,10,08,00,23,8.10
2016,10,08,00,24,8.10
2016,10,08,00,25,6.40
2016,10,08,00,26,6.40
2016,10,08,00,27,8.10
2016,10,08,00,28,8.10
2016,10,08,00,29,6.40
2016,10,08,00,30,6.40
2016,10,08,00,31,8.10
2016,10,08,00,32,8.10
2016,10,08,00,33,8.10
2016,10,08,00,34,6.40
2016,10,08,00,35,6.40
2016,10,08,00,36,6.40
2016,10,08,00,37,6.40
2016,10,08,00,38,6.40
2016,10,08,00,39,6.40
2016,10,08,00,40,6.40
2016,10,08,00,41,4.80
2016,10,08,00,42,6.40
2016,10,08,00,43,6.40
2016,10,08,00,44,8.10
2016,10,08,00,45,8.10
2016,10,08,00,46,8.10
2016,10,08,00,47,8.10
2016,10,08,00,48,9.60
2016,10,08,00,49,11.30
2016,10,08,00,50,11.30
2016,10,08,00,51,11.30
2016,10,08,00,52,11.30
2016,10,08,00,53,11.30
2016,10,08,00,54,11.30
2016,10,08,00,55,11.30
2016,10,08,00,56,11.30
2016,10,08,00,57,11.30
2016,10,08,00,58,11.30
2016,10,08,00,59,11.30
2016,10,08,01,00,11.30
2016,10,08,01,01,11.30
2016,10,08,01,02,11.30
2016,10,08,01,03,11.30
2016,10,08,01,04,11.30
2016,10,08,01,05,11.30
2016,10,08,01,06,11.30
2016,10,08,01,07,8.10
2016,10,08,01,08,8.10
2016,10,08,01,09,8.10
2016,10,08,01,10,8.10
2016,10,08,01,11,8.10
2016,10,08,01,12,9.60
2016,10,08,01,13,11.30
2016,10,08,01,14,11.30
2016,10,08,01,15,12.90
2016,10,08,01,16,11.30
2016,10,08,01,17,11.30
2016,10,08,01,18,11.30
2016,10,08,01,19,11.30
2016,10,08,01,20,12.90
2016,10,08,01,21,11.30
2016,10,08,01,22,11.30
2016,10,08,01,23,11.30
2016,10,08,01,24,11.30
2016,10,08,01,25,11.30
2016,10,08,01,26,8.10
2016,10,08,01,27,8.10
2016,10,08,01,28,8.10
2016,10,08,01,29,8.10
2016,10,08,01,30,6.40
2016,10,08,01,31,6.40
2016,10,08,01,32,6.40
2016,10,08,01,33,6.40
2016,10,08,01,34,6.40
2016,10,08,01,35,6.40
2016,10,08,01,36,6.40
2016,10,08,01,37,6.40
2016,10,08,01,38,8.10
2016,10,08,01,39,8.10
2016,10,08,01,40,9.60
2016,10,08,01,41,8.10
2016,10,08,01,42,9.60
2016,10,08,01,43,9.60
2016,10,08,01,44,9.60
2016,10,08,01,45,9.60
2016,10,08,01,46,11.30
2016,10,08,01,47,11.30
2016,10,08,01,48,11.30
2016,10,08,01,49,12.90
2016,10,08,01,50,11.30
2016,10,08,01,51,12.90
2016,10,08,01,52,12.90
2016,10,08,01,53,12.90
2016,10,08,01,54,12.90
2016,10,08,01,55,12.90
2016,10,08,01,56,11.30
2016,10,08,01,57,11.30
2016,10,08,01,58,11.30
2016,10,08,01,59,14.50
2016,10,08,02,00,14.50
2016,10,08,02,01,14.50
2016,10,08,02,02,14.50
2016,10,08,02,03,14.50
2016,10,08,02,04,14.50
2016,10,08,02,05,14.50
2016,10,08,02,06,14.50
2016,10,08,02,07,14.50
2016,10,08,02,08,14.50
2016,10,08,02,09,14.50
2016,10,08,02,10,14.50
2016,10,08,02,11,14.50
2016,10,08,02,12,14.50
2016,10,08,02,13,16.10
2016,10,08,02,14,16.10
2016,10,08,02,15,16.10
2016,10,08,02,16,17.70
2016,10,08,02,17,17.70
2016,10,08,02,18,19.30
2016,10,08,02,19,19.30
2016,10,08,02,20,19.30
2016,10,08,02,21,17.70
2016,10,08,02,22,17.70
2016,10,08,02,23,17.70
2016,10,08,02,24,17.70
2016,10,08,02,25,17.70
2016,10,08,02,26,19.30
2016,10,08,02,27,19.30
2016,10,08,02,28,20.90
2016,10,08,02,29,20.90
2016,10,08,02,30,20.90
2016,10,08,02,31,20.90
2016,10,08,02,32,19.30
2016,10,08,02,33,20.90
2016,10,08,02,34,22.50
2016,10,08,02,35,22.50
2016,10,08,02,36,22.50
2016,10,08,02,37,24.20
2016,10,08,02,38,22.50
2016,10,08,02,39,22.50
2016,10,08,02,40,24.20
2016,10,08,02,41,22.50
2016,10,08,02,42,20.90
2016,10,08,02,43,20.90
2016,10,08,02,44,20.90
2016,10,08,02,45,20.90
2016,10,08,02,46,24.20
2016,10,08,02,47,24.20
2016,10,08,02,48,24.20
2016,10,08,02,49,24.20
2016,10,08,02,50,25.70
2016,10,08,02,51,27.40
2016,10,08,02,52,25.70
2016,10,08,02,53,24.20
2016,10,08,02,54,25.70
2016,10,08,02,55,27.40
2016,10,08,02,56,25.70
2016,10,08,02,57,27.40
2016,10,08,02,58,25.70
2016,10,08,02,59,25.70
2016,10,08,03,00,25.70
2016,10,08,03,01,25.70
2016,10,08,03,02,24.20
2016,10,08,03,03,29.00
2016,10,08,03,04,29.00
2016,10,08,03,05,27.40
2016,10,08,03,06,29.00
2016,10,08,03,07,27.40
2016,10,08,03,08,27.40
2016,10,08,03,09,27.40
2016,10,08,03,10,25.70
2016,10,08,03,11,25.70
2016,10,08,03,12,25.70
2016,10,08,03,13,25.70
2016,10,08,03,14,24.20
2016,10,08,03,15,25.70
2016,10,08,03,16,22.50
2016,10,08,03,17,24.20
2016,10,08,03,18,22.50
2016,10,08,03,19,25.70
2016,10,08,03,20,22.50
2016,10,08,03,21,24.20
2016,10,08,03,22,20.90
2016,10,08,03,23,20.90
2016,10,08,03,24,22.50
2016,10,08,03,25,20.90
2016,10,08,03,26,20.90
2016,10,08,03,27,20.90
2016,10,08,03,28,22.50
2016,10,08,03,29,19.30
2016,10,08,03,30,20.90
2016,10,08,03,31,20.90
2016,10,08,03,32,22.50
2016,10,08,03,33,24.20
2016,10,08,03,34,24.20
2016,10,08,03,35,22.50
2016,10,08,03,36,22.50
2016,10,08,03,37,20.90
2016,10,08,03,38,19.30
2016,10,08,03,39,20.90
2016,10,08,03,40,19.30
2016,10,08,03,41,20.90
2016,10,08,03,42,19.30
2016,10,08,03,43,24.20
2016,10,08,03,44,25.70
2016,10,08,03,45,25.70
2016,10,08,03,46,22.50
2016,10,08,03,47,24.20
2016,10,08,03,48,24.20
2016,10,08,03,49,22.50
2016,10,08,03,50,24.20
2016,10,08,03,51,22.50
2016,10,08,03,52,24.20
2016,10,08,03,53,22.50
2016,10,08,03,54,22.50
2016,10,08,03,55,24.20
2016,10,08,03,56,27.40
2016,10,08,03,57,27.40
2016,10,08,03,58,27.40
2016,10,08,03,59,30.60
2016,10,08,04,00,30.60
2016,10,08,04,01,29.00
2016,10,08,04,02,27.40
2016,10,08,04,03,27.40
2016,10,08,04,04,29.00
2016,10,08,04,05,29.00
2016,10,08,04,06,30.60
2016,10,08,04,07,29.00
2016,10,08,04,08,29.00
2016,10,08,04,09,32.20
2016,10,08,04,10,30.60
2016,10,08,04,11,32.20
2016,10,08,04,12,30.60
2016,10,08,04,13,29.00
2016,10,08,04,14,27.40
2016,10,08,04,15,29.00
2016,10,08,04,16,29.00
2016,10,08,04,17,29.00
2016,10,08,04,18,27.40
2016,10,08,04,19,29.00
2016,10,08,04,20,27.40
2016,10,08,04,21,27.40
2016,10,08,04,22,27.40
2016,10,08,04,23,27.40
2016,10,08,04,24,29.00
2016,10,08,04,25,27.40
2016,10,08,04,26,27.40
2016,10,08,04,27,25.70
2016,10,08,04,28,27.40
2016,10,08,04,29,25.70
2016,10,08,04,30,24.20
2016,10,08,04,31,24.20
2016,10,08,04,32,24.20
2016,10,08,04,33,24.20
2016,10,08,04,34,24.20
2016,10,08,04,35,24.20
2016,10,08,04,36,24.20
2016,10,08,04,37,24.20
2016,10,08,04,38,29.00
2016,10,08,04,39,29.00
2016,10,08,04,40,29.00
2016,10,08,04,41,25.70
2016,10,08,04,42,24.20
2016,10,08,04,43,25.70
2016,10,08,04,44,30.60
2016,10,08,04,45,33.80
2016,10,08,04,46,35.40
2016,10,08,04,47,32.20
2016,10,08,04,48,29.00
2016,10,08,04,49,27.40
2016,10,08,04,50,24.20
2016,10,08,04,51,30.60
2016,10,08,04,52,30.60
2016,10,08,04,53,33.80
2016,10,08,04,54,33.80
2016,10,08,04,55,35.40
2016,10,08,04,56,27.40
2016,10,08,04,57,22.50
2016,10,08,04,58,22.50
2016,10,08,04,59,27.40
2016,10,08,05,00,29.00
2016,10,08,05,01,30.60
2016,10,08,05,02,33.80
2016,10,08,05,03,35.40
2016,10,08,05,04,37.00
2016,10,08,05,05,35.40
2016,10,08,05,06,32.20
2016,10,08,05,07,33.80
2016,10,08,05,08,32.20
2016,10,08,05,09,32.20
2016,10,08,05,10,33.80
2016,10,08,05,11,32.20
2016,10,08,05,12,33.80
2016,10,08,05,13,33.80
2016,10,08,05,14,35.40
2016,10,08,05,15,35.40
2016,10,08,05,16,33.80
2016,10,08,05,17,32.20
2016,10,08,05,18,32.20
2016,10,08,05,19,32.20
2016,10,08,05,20,33.80
2016,10,08,05,21,35.40
2016,10,08,05,22,32.20
2016,10,08,05,23,30.60
2016,10,08,05,24,29.00
2016,10,08,05,25,32.20
2016,10,08,05,26,32.20
2016,10,08,05,27,29.00
2016,10,08,05,28,27.40
2016,10,08,05,29,29.00
2016,10,08,05,30,30.60
2016,10,08,05,31,32.20
2016,10,08,05,32,32.20
2016,10,08,05,33,30.60
2016,10,08,05,34,30.60
2016,10,08,05,35,29.00
2016,10,08,05,36,30.60
2016,10,08,05,37,30.60
2016,10,08,05,38,30.60
2016,10,08,05,39,30.60
2016,10,08,05,40,32.20
2016,10,08,05,41,32.20
2016,10,08,05,42,30.60
2016,10,08,05,43,30.60
2016,10,08,05,44,29.00
2016,10,08,05,45,27.40
2016,10,08,05,46,27.40
2016,10,08,05,47,29.00
2016,10,08,05,48,30.60
2016,10,08,05,49,30.60
2016,10,08,05,50,27.40
2016,10,08,05,51,27.40
2016,10,08,05,52,25.70
2016,10,08,05,53,24.20
2016,10,08,05,54,29.00
2016,10,08,05,55,27.40
2016,10,08,05,56,24.20
2016,10,08,05,57,29.00
2016,10,08,05,58,29.00
2016,10,08,05,59,29.00
2016,10,08,06,00,29.00
2016,10,08,06,01,25.70
2016,10,08,06,02,30.60
2016,10,08,06,03,27.40
2016,10,08,06,04,29.00
2016,10,08,06,05,29.00
2016,10,08,06,06,29.00
2016,10,08,06,07,30.60
2016,10,08,06,08,27.40
2016,10,08,06,09,29.00
2016,10,08,06,10,29.00
2016,10,08,06,11,30.60
2016,10,08,06,12,30.60
2016,10,08,06,13,32.20
2016,10,08,06,14,30.60
2016,10,08,06,15,32.20
2016,10,08,06,16,30.60
2016,10,08,06,17,29.00
2016,10,08,06,18,29.00
2016,10,08,06,19,27.40
2016,10,08,06,20,29.00
2016,10,08,06,21,29.00
2016,10,08,06,22,29.00
2016,10,08,06,23,30.60
2016,10,08,06,24,30.60
2016,10,08,06,25,32.20
2016,10,08,06,26,32.20
2016,10,08,06,27,30.60
2016,10,08,06,28,32.20
2016,10,08,06,29,33.80
2016,10,08,06,30,33.80
2016,10,08,06,31,32.20
2016,10,08,06,32,32.20
2016,10,08,06,33,30.60
2016,10,08,06,34,32.20
2016,10,08,06,35,30.60
2016,10,08,06,36,32.20
2016,10,08,06,37,30.60
2016,10,08,06,38,29.00
2016,10,08,06,39,29.00
2016,10,08,06,40,29.00
2016,10,08,06,41,27.40
2016,10,08,06,42,27.40
2016,10,08,06,43,27.40
2016,10,08,06,44,25.70
2016,10,08,06,45,27.40
2016,10,08,06,46,29.00
2016,10,08,06,47,25.70
2016,10,08,06,48,24.20
2016,10,08,06,49,24.20
2016,10,08,06,50,24.20
2016,10,08,06,51,27.40
2016,10,08,06,52,27.40
2016,10,08,06,53,25.70
2016,10,08,06,54,25.70
2016,10,08,06,55,25.70
2016,10,08,06,56,27.40
2016,10,08,06,57,29.00
2016,10,08,06,58,29.00
2016,10,08,06,59,29.00
2016,10,08,07,00,29.00
2016,10,08,07,01,29.00
2016,10,08,07,02,29.00
2016,10,08,07,03,27.40
2016,10,08,07,04,27.40
2016,10,08,07,05,27.40
2016,10,08,07,06,29.00
2016,10,08,07,07,29.00
2016,10,08,07,08,29.00
2016,10,08,07,09,29.00
2016,10,08,07,10,32.20
2016,10,08,07,11,30.60
2016,10,08,07,12,30.60
2016,10,08,07,13,32.20
2016,10,08,07,14,30.60
2016,10,08,07,15,30.60
2016,10,08,07,16,30.60
2016,10,08,07,17,30.60
2016,10,08,07,18,29.00
2016,10,08,07,19,29.00
2016,10,08,07,20,29.00
2016,10,08,07,21,27.40
2016,10,08,07,22,25.70
2016,10,08,07,23,24.20
2016,10,08,07,24,24.20
2016,10,08,07,25,24.20
2016,10,08,07,26,22.50
2016,10,08,07,27,25.70
2016,10,08,07,28,22.50
2016,10,08,07,29,24.20
2016,10,08,07,30,25.70
2016,10,08,07,31,24.20
2016,10,08,07,32,24.20
2016,10,08,07,33,25.70
2016,10,08,07,34,25.70
2016,10,08,07,35,24.20
2016,10,08,07,36,25.70
2016,10,08,07,37,25.70
2016,10,08,07,38,27.40
2016,10,08,07,39,27.40
2016,10,08,07,40,25.70
2016,10,08,07,41,25.70
2016,10,08,07,42,27.40
2016,10,08,07,43,29.00
2016,10,08,07,44,29.00
2016,10,08,07,45,27.40
2016,10,08,07,46,27.40
2016,10,08,07,47,27.40
2016,10,08,07,48,29.00
2016,10,08,07,49,27.40
2016,10,08,07,50,29.00
2016,10,08,07,51,27.40
2016,10,08,07,52,29.00
2016,10,08,07,53,29.00
2016,10,08,07,54,29.00
2016,10,08,07,55,29.00
2016,10,08,07,56,29.00
2016,10,08,07,57,27.40
2016,10,08,07,58,27.40
2016,10,08,07,59,27.40
2016,10,08,08,00,27.40
2016,10,08,08,01,29.00
2016,10,08,08,02,27.40
2016,10,08,08,03,29.00
2016,10,08,08,04,29.00
2016,10,08,08,05,29.00
2016,10,08,08,06,29.00
2016,10,08,08,07,29.00
2016,10,08,08,08,29.00
2016,10,08,08,09,29.00
2016,10,08,08,10,30.60
2016,10,08,08,11,30.60
2016,10,08,08,12,25.70
2016,10,08,08,13,25.70
2016,10,08,08,14,25.70
2016,10,08,08,15,25.70
2016,10,08,08,16,25.70
2016,10,08,08,17,27.40
2016,10,08,08,18,27.40
2016,10,08,08,19,27.40
2016,10,08,08,20,25.70
2016,10,08,08,21,25.70
2016,10,08,08,22,25.70
2016,10,08,08,23,25.70
2016,10,08,08,24,25.70
2016,10,08,08,25,25.70
2016,10,08,08,26,25.70
2016,10,08,08,27,27.40
2016,10,08,08,28,24.20
2016,10,08,08,29,27.40
2016,10,08,08,30,27.40
2016,10,08,08,31,25.70
2016,10,08,08,32,29.00
2016,10,08,08,33,27.40
2016,10,08,08,34,25.70
2016,10,08,08,35,24.20
2016,10,08,08,36,25.70
2016,10,08,08,37,25.70
2016,10,08,08,38,27.40
2016,10,08,08,39,25.70
2016,10,08,08,40,24.20
2016,10,08,08,41,24.20
2016,10,08,08,42,24.20
2016,10,08,08,43,25.70
2016,10,08,08,44,22.50
2016,10,08,08,45,22.50
2016,10,08,08,46,25.70
2016,10,08,08,47,27.40
2016,10,08,08,48,27.40
2016,10,08,08,49,27.40
2016,10,08,08,50,25.70
2016,10,08,08,51,25.70
2016,10,08,08,52,25.70
2016,10,08,08,53,25.70
2016,10,08,08,54,27.40
2016,10,08,08,55,27.40
2016,10,08,08,56,25.70
2016,10,08,08,57,25.70
2016,10,08,08,58,25.70
2016,10,08,08,59,24.20
2016,10,08,09,00,24.20
2016,10,08,09,01,22.50
2016,10,08,09,02,25.70
2016,10,08,09,03,22.50
2016,10,08,09,04,22.50
2016,10,08,09,05,24.20
2016,10,08,09,06,20.90
2016,10,08,09,07,24.20
2016,10,08,09,08,25.70
2016,10,08,09,09,25.70
2016,10,08,09,10,25.70
2016,10,08,09,11,22.50
2016,10,08,09,12,22.50
2016,10,08,09,13,24.20
2016,10,08,09,14,24.20
2016,10,08,09,15,22.50
2016,10,08,09,16,24.20
2016,10,08,09,17,24.20
2016,10,08,09,18,24.20
2016,10,08,09,19,24.20
2016,10,08,09,20,24.20
2016,10,08,09,21,25.70
2016,10,08,09,22,25.70
2016,10,08,09,23,25.70
2016,10,08,09,24,25.70
2016,10,08,09,25,27.40
2016,10,08,09,26,24.20
2016,10,08,09,27,25.70
2016,10,08,09,28,25.70
2016,10,08,09,29,25.70
2016,10,08,09,30,29.00
2016,10,08,09,31,27.40
2016,10,08,09,32,27.40
2016,10,08,09,33,29.00
2016,10,08,09,34,27.40
2016,10,08,09,35,25.70
2016,10,08,09,36,24.20
2016,10,08,09,37,25.70
2016,10,08,09,38,24.20
2016,10,08,09,39,27.40
2016,10,08,09,40,25.70
2016,10,08,09,41,24.20
2016,10,08,09,42,24.20
2016,10,08,09,43,24.20
2016,10,08,09,44,25.70
2016,10,08,09,45,27.40
2016,10,08,09,46,29.00
2016,10,08,09,47,25.70
2016,10,08,09,48,24.20
2016,10,08,09,49,25.70
2016,10,08,09,50,25.70
2016,10,08,09,51,27.40
2016,10,08,09,52,24.20
2016,10,08,09,53,24.20
2016,10,08,09,54,22.50
2016,10,08,09,55,24.20
2016,10,08,09,56,22.50
2016,10,08,09,57,27.40
2016,10,08,09,58,24.20
2016,10,08,09,59,25.70
2016,10,08,10,00,24.20
2016,10,08,10,01,24.20
2016,10,08,10,02,24.20
2016,10,08,10,03,27.40
2016,10,08,10,04,25.70
2016,10,08,10,05,27.40
2016,10,08,10,06,25.70
2016,10,08,10,07,25.70
2016,10,08,10,08,22.50
2016,10,08,10,09,20.90
2016,10,08,10,10,20.90
2016,10,08,10,11,25.70
2016,10,08,10,12,25.70
2016,10,08,10,13,27.40
2016,10,08,10,14,25.70
2016,10,08,10,15,24.20
2016,10,08,10,16,25.70
2016,10,08,10,17,24.20
2016,10,08,10,18,20.90
2016,10,08,10,19,19.30
2016,10,08,10,20,17.70
2016,10,08,10,21,17.70
2016,10,08,10,22,17.70
2016,10,08,10,23,17.70
2016,10,08,10,24,17.70
2016,10,08,10,25,17.70
2016,10,08,10,26,17.70
2016,10,08,10,27,19.30
2016,10,08,10,28,25.70
2016,10,08,10,29,25.70
2016,10,08,10,30,24.20
2016,10,08,10,31,22.50
2016,10,08,10,32,24.20
2016,10,08,10,33,27.40
2016,10,08,10,34,29.00
2016,10,08,10,35,25.70
2016,10,08,10,36,27.40
2016,10,08,10,37,29.00
2016,10,08,10,38,29.00
2016,10,08,10,39,29.00
2016,10,08,10,40,24.20
2016,10,08,10,41,22.50
2016,10,08,10,42,19.30
2016,10,08,10,43,27.40
2016,10,08,10,44,25.70
2016,10,08,10,45,25.70
2016,10,08,10,46,24.20
2016,10,08,10,47,22.50
2016,10,08,10,48,24.20
2016,10,08,10,49,24.20
2016,10,08,10,50,24.20
2016,10,08,10,51,22.50
2016,10,08,10,52,19.30
2016,10,08,10,53,20.90
2016,10,08,10,54,22.50
2016,10,08,10,55,24.20
2016,10,08,10,56,22.50
2016,10,08,10,57,20.90
2016,10,08,10,58,20.90
2016,10,08,10,59,20.90
2016,10,08,11,00,16.10
2016,10,08,11,01,19.30
2016,10,08,11,02,19.30
2016,10,08,11,03,17.70
2016,10,08,11,04,19.30
2016,10,08,11,05,20.90
2016,10,08,11,06,20.90
2016,10,08,11,07,24.20
2016,10,08,11,08,24.20
2016,10,08,11,09,20.90
2016,10,08,11,10,22.50
2016,10,08,11,11,24.20
2016,10,08,11,12,17.70
2016,10,08,11,13,20.90
2016,10,08,11,14,22.50
2016,10,08,11,15,20.90
2016,10,08,11,16,22.50
2016,10,08,11,17,22.50
2016,10,08,11,18,20.90
2016,10,08,11,19,17.70
2016,10,08,11,20,17.70
2016,10,08,11,21,22.50
2016,10,08,11,22,22.50
2016,10,08,11,23,24.20
2016,10,08,11,24,24.20
2016,10,08,11,25,25.70
2016,10,08,11,26,24.20
2016,10,08,11,27,22.50
2016,10,08,11,28,22.50
2016,10,08,11,29,22.50
2016,10,08,11,30,24.20
2016,10,08,11,31,24.20
2016,10,08,11,32,25.70
2016,10,08,11,33,24.20
2016,10,08,11,34,29.00
2016,10,08,11,35,27.40
2016,10,08,11,36,24.20
2016,10,08,11,37,20.90
2016,10,08,11,38,24.20
2016,10,08,11,39,24.20
2016,10,08,11,40,24.20
2016,10,08,11,41,24.20
2016,10,08,11,42,22.50
2016,10,08,11,43,24.20
2016,10,08,11,44,22.50
2016,10,08,11,45,19.30
2016,10,08,11,46,22.50
2016,10,08,11,47,19.30
2016,10,08,11,48,24.20
2016,10,08,11,49,24.20
2016,10,08,11,50,24.20
2016,10,08,11,51,25.70
2016,10,08,11,52,25.70
2016,10,08,11,53,24.20
2016,10,08,11,54,24.20
2016,10,08,11,55,22.50
2016,10,08,11,56,19.30
2016,10,08,11,57,20.90
2016,10,08,11,58,19.30
2016,10,08,11,59,19.30
2016,10,08,12,00,22.50
2016,10,08,12,01,24.20
2016,10,08,12,02,24.20
2016,10,08,12,03,24.20
2016,10,08,12,04,24.20
2016,10,08,12,05,24.20
2016,10,08,12,06,17.70
2016,10,08,12,07,22.50
2016,10,08,12,08,24.20
2016,10,08,12,09,22.50
2016,10,08,12,10,24.20
2016,10,08,12,11,20.90
2016,10,08,12,12,22.50
2016,10,08,12,13,20.90
2016,10,08,12,14,22.50
2016,10,08,12,15,20.90
2016,10,08,12,16,19.30
2016,10,08,12,17,22.50
2016,10,08,12,18,20.90
2016,10,08,12,19,19.30
2016,10,08,12,20,17.70
2016,10,08,12,21,19.30
2016,10,08,12,22,17.70
2016,10,08,12,23,17.70
2016,10,08,12,24,20.90
2016,10,08,12,25,20.90
2016,10,08,12,26,19.30
2016,10,08,12,27,20.90
2016,10,08,12,28,17.70
2016,10,08,12,29,17.70
2016,10,08,12,30,22.50
2016,10,08,12,31,20.90
2016,10,08,12,32,20.90
2016,10,08,12,33,22.50
2016,10,08,12,34,22.50
2016,10,08,12,35,19.30
2016,10,08,12,36,24.20
2016,10,08,12,37,25.70
2016,10,08,12,38,25.70
2016,10,08,12,39,24.20
2016,10,08,12,40,25.70
2016,10,08,12,41,25.70
2016,10,08,12,42,24.20
2016,10,08,12,43,20.90
2016,10,08,12,44,24.20
2016,10,08,12,45,22.50
2016,10,08,12,46,24.20
2016,10,08,12,47,24.20
2016,10,08,12,48,25.70
2016,10,08,12,49,27.40
2016,10,08,12,50,27.40
2016,10,08,12,51,27.40
2016,10,08,12,52,25.70
2016,10,08,12,53,25.70
2016,10,08,12,54,25.70
2016,10,08,12,55,30.60
2016,10,08,12,56,27.40
2016,10,08,12,57,24.20
2016,10,08,12,58,27.40
2016,10,08,12,59,29.00
2016,10,08,13,00,29.00
2016,10,08,13,01,27.40
2016,10,08,13,02,27.40
2016,10,08,13,03,25.70
2016,10,08,13,04,22.50
2016,10,08,13,05,24.20
2016,10,08,13,06,24.20
2016,10,08,13,07,25.70
2016,10,08,13,08,25.70
2016,10,08,13,09,24.20
2016,10,08,13,10,27.40
2016,10,08,13,11,25.70
2016,10,08,13,12,25.70
2016,10,08,13,13,22.50
2016,10,08,13,14,22.50
2016,10,08,13,15,22.50
2016,10,08,13,16,20.90
2016,10,08,13,17,19.30
2016,10,08,13,18,17.70
2016,10,08,13,19,19.30
2016,10,08,13,20,19.30
2016,10,08,13,21,19.30
2016,10,08,13,22,19.30
2016,10,08,13,23,17.70
2016,10,08,13,24,16.10
2016,10,08,13,25,16.10
2016,10,08,13,26,16.10
2016,10,08,13,27,16.10
2016,10,08,13,28,14.50
2016,10,08,13,29,17.70
2016,10,08,13,30,19.30
2016,10,08,13,31,19.30
2016,10,08,13,32,20.90
2016,10,08,13,33,19.30
2016,10,08,13,34,20.90
2016,10,08,13,35,19.30
2016,10,08,13,36,17.70
2016,10,08,13,37,14.50
2016,10,08,13,38,14.50
2016,10,08,13,39,12.90
2016,10,08,13,40,14.50
2016,10,08,13,41,14.50
2016,10,08,13,42,14.50
2016,10,08,13,43,17.70
2016,10,08,13,44,17.70
2016,10,08,13,45,12.90
2016,10,08,13,46,12.90
2016,10,08,13,47,12.90
2016,10,08,13,48,14.50
2016,10,08,13,49,14.50
2016,10,08,13,50,12.90
2016,10,08,13,51,14.50
2016,10,08,13,52,12.90
2016,10,08,13,53,14.50
2016,10,08,13,54,14.50
2016,10,08,13,55,14.50
2016,10,08,13,56,14.50
2016,10,08,13,57,16.10
2016,10,08,13,58,14.50
2016,10,08,13,59,12.90
2016,10,08,14,00,11.30
2016,10,08,14,01,11.30
2016,10,08,14,02,11.30
2016,10,08,14,03,12.90
2016,10,08,14,04,11.30
2016,10,08,14,05,12.90
2016,10,08,14,06,11.30
2016,10,08,14,07,11.30
2016,10,08,14,08,11.30
2016,10,08,14,09,11.30
2016,10,08,14,10,11.30
2016,10,08,14,11,12.90
2016,10,08,14,12,12.90
2016,10,08,14,13,12.90
2016,10,08,14,14,12.90
2016,10,08,14,15,11.30
2016,10,08,14,16,9.60
2016,10,08,14,17,11.30
2016,10,08,14,18,9.60
2016,10,08,14,19,11.30
2016,10,08,14,20,9.60
2016,10,08,14,21,8.10
2016,10,08,14,22,8.10
2016,10,08,14,23,8.10
2016,10,08,14,24,8.10
2016,10,08,14,25,8.10
2016,10,08,14,26,8.10
2016,10,08,14,27,8.10
2016,10,08,14,28,8.10
2016,10,08,14,29,9.60
2016,10,08,14,30,9.60
2016,10,08,14,31,8.10
2016,10,08,14,32,8.10
2016,10,08,14,33,8.10
2016,10,08,14,34,9.60
2016,10,08,14,35,9.60
2016,10,08,14,36,9.60
2016,10,08,14,37,11.30
2016,10,08,14,38,9.60
2016,10,08,14,39,8.10
2016,10,08,14,40,9.60
2016,10,08,14,41,11.30
2016,10,08,14,42,9.60
2016,10,08,14,43,11.30
2016,10,08,14,44,9.60
2016,10,08,14,45,11.30
2016,10,08,14,46,11.30
2016,10,08,14,47,11.30
2016,10,08,14,48,9.60
2016,10,08,14,49,12.90
2016,10,08,14,50,12.90
2016,10,08,14,51,12.90
2016,10,08,14,52,11.30
2016,10,08,14,53,12.90
2016,10,08,14,54,11.30
2016,10,08,14,55,12.90
2016,10,08,14,56,14.50
2016,10,08,14,57,16.10
2016,10,08,14,58,16.10
2016,10,08,14,59,16.10
2016,10,08,15,00,16.10
2016,10,08,15,01,16.10
2016,10,08,15,02,17.70
2016,10,08,15,03,16.10
2016,10,08,15,04,16.10
2016,10,08,15,05,19.30
2016,10,08,15,06,19.30
2016,10,08,15,07,19.30
2016,10,08,15,08,20.90
2016,10,08,15,09,20.90
2016,10,08,15,10,20.90
2016,10,08,15,11,20.90
2016,10,08,15,12,20.90
2016,10,08,15,13,20.90
2016,10,08,15,14,20.90
2016,10,08,15,15,20.90
2016,10,08,15,16,20.90
2016,10,08,15,17,20.90
2016,10,08,15,18,20.90
2016,10,08,15,19,20.90
2016,10,08,15,20,20.90
2016,10,08,15,21,20.90
2016,10,08,15,22,19.30
2016,10,08,15,23,20.90
2016,10,08,15,24,24.20
2016,10,08,15,25,24.20
2016,10,08,15,26,24.20
2016,10,08,15,27,22.50
2016,10,08,15,28,22.50
2016,10,08,15,29,22.50
2016,10,08,15,30,20.90
2016,10,08,15,31,19.30
2016,10,08,15,32,17.70
2016,10,08,15,33,19.30
2016,10,08,15,34,19.30
2016,10,08,15,35,20.90
2016,10,08,15,36,24.20
2016,10,08,15,37,24.20
2016,10,08,15,38,24.20
2016,10,08,15,39,25.70
2016,10,08,15,40,24.20
2016,10,08,15,41,24.20
2016,10,08,15,42,24.20
2016,10,08,15,43,24.20
2016,10,08,15,44,22.50
2016,10,08,15,45,24.20
2016,10,08,15,46,24.20
2016,10,08,15,47,24.20
2016,10,08,15,48,24.20
2016,10,08,15,49,25.70
2016,10,08,15,50,25.70
2016,10,08,15,51,25.70
2016,10,08,15,52,27.40
2016,10,08,15,53,27.40
2016,10,08,15,54,27.40
2016,10,08,15,55,27.40
2016,10,08,15,56,27.40
2016,10,08,15,57,27.40
2016,10,08,15,58,25.70
2016,10,08,15,59,25.70
2016,10,08,16,00,27.40
2016,10,08,16,01,25.70
2016,10,08,16,02,25.70
2016,10,08,16,03,27.40
2016,10,08,16,04,27.40
2016,10,08,16,05,25.70
2016,10,08,16,06,27.40
2016,10,08,16,07,27.40
2016,10,08,16,08,27.40
2016,10,08,16,09,25.70
2016,10,08,16,10,25.70
2016,10,08,16,11,25.70
2016,10,08,16,12,27.40
2016,10,08,16,13,25.70
2016,10,08,16,14,25.70
2016,10,08,16,15,27.40
2016,10,08,16,16,27.40
2016,10,08,16,17,27.40
2016,10,08,16,18,29.00
2016,10,08,16,19,30.60
2016,10,08,16,20,29.00
2016,10,08,16,21,29.00
2016,10,08,16,22,27.40
2016,10,08,16,23,27.40
2016,10,08,16,24,25.70
2016,10,08,16,25,27.40
2016,10,08,16,26,27.40
2016,10,08,16,27,27.40
2016,10,08,16,28,25.70
2016,10,08,16,29,25.70
2016,10,08,16,30,24.20
2016,10,08,16,31,25.70
2016,10,08,16,32,25.70
2016,10,08,16,33,29.00
2016,10,08,16,34,27.40
2016,10,08,16,35,25.70
2016,10,08,16,36,25.70
2016,10,08,16,37,25.70
2016,10,08,16,38,22.50
2016,10,08,16,39,27.40
2016,10,08,16,40,27.40
2016,10,08,16,41,27.40
2016,10,08,16,42,25.70
2016,10,08,16,43,24.20
2016,10,08,16,44,24.20
2016,10,08,16,45,25.70
2016,10,08,16,46,20.90
2016,10,08,16,47,22.50
2016,10,08,16,48,24.20
2016,10,08,16,49,25.70
2016,10,08,16,50,25.70
2016,10,08,16,51,29.00
2016,10,08,16,52,25.70
2016,10,08,16,53,27.40
2016,10,08,16,54,24.20
2016,10,08,16,55,22.50
2016,10,08,16,56,22.50
2016,10,08,16,57,22.50
2016,10,08,16,58,20.90
2016,10,08,16,59,22.50
2016,10,08,17,00,20.90
2016,10,08,17,01,22.50
2016,10,08,17,02,20.90
2016,10,08,17,03,22.50
2016,10,08,17,04,22.50
2016,10,08,17,05,24.20
2016,10,08,17,06,17.70
2016,10,08,17,07,19.30
2016,10,08,17,08,19.30
2016,10,08,17,09,14.50
2016,10,08,17,10,19.30
2016,10,08,17,11,17.70
2016,10,08,17,12,19.30
2016,10,08,17,13,19.30
2016,10,08,17,14,19.30
2016,10,08,17,15,20.90
2016,10,08,17,16,20.90
2016,10,08,17,17,20.90
2016,10,08,17,18,22.50
2016,10,08,17,19,24.20
2016,10,08,17,20,24.20
2016,10,08,17,21,19.30
2016,10,08,17,22,19.30
2016,10,08,17,23,19.30